ACA1825 KSEA-CYVR

Flight info

Callsign ACA1825
Flight time N/A
Altitude 15999
Route DCT PAE GRIZZ9
Aircraft A333/H-SDE1E2E3FGHIJ2J3J4J5M1RWXYZ/LB2D1

Departure

Time 2026-05-05 03:59
Airport Seattle–Tacoma International Airport (KSEA)

Arrival

Time N/A
Airport Vancouver International Airport (CYVR)
Time Latitude Longitude Altitude Speed Heading
2026-05-05 03:41 47.44542 -122.30147 397 ft 0 kts 134°
2026-05-05 03:50 47.44549 -122.30157 393 ft 4 kts 125°
2026-05-05 03:50 47.44556 -122.30190 392 ft 4 kts 75°
2026-05-05 03:50 47.44544 -122.30222 393 ft 4 kts 39°
2026-05-05 03:51 47.44530 -122.30236 392 ft 1 kts 24°
2026-05-05 03:53 47.44537 -122.30232 388 ft 4 kts 24°
2026-05-05 03:54 47.44583 -122.30207 396 ft 9 kts 13°
2026-05-05 03:54 47.44662 -122.30255 394 ft 16 kts 312°
2026-05-05 03:54 47.44723 -122.30393 397 ft 17 kts 285°
2026-05-05 03:54 47.44777 -122.30525 396 ft 16 kts 336°
2026-05-05 03:55 47.44898 -122.30535 395 ft 20 kts
2026-05-05 03:55 47.45028 -122.30589 397 ft 18 kts 333°
2026-05-05 03:55 47.45159 -122.30619 396 ft 20 kts 360°
2026-05-05 03:55 47.45307 -122.30620 396 ft 22 kts 360°
2026-05-05 03:56 47.45467 -122.30617 397 ft 24 kts
2026-05-05 03:56 47.45652 -122.30616 396 ft 28 kts 360°
2026-05-05 03:56 47.45847 -122.30615 395 ft 29 kts
2026-05-05 03:56 47.46052 -122.30613 396 ft 30 kts
2026-05-05 03:57 47.46255 -122.30613 395 ft 26 kts
2026-05-05 03:57 47.46323 -122.30613 396 ft 7 kts 354°
2026-05-05 03:57 47.46364 -122.30650 395 ft 7 kts 302°
2026-05-05 03:57 47.46358 -122.30729 392 ft 9 kts 240°
2026-05-05 03:58 47.46302 -122.30775 394 ft 12 kts 187°
2026-05-05 03:58 47.46170 -122.30782 396 ft 38 kts 181°
2026-05-05 03:58 47.45628 -122.30790 397 ft 117 kts 180°
2026-05-05 03:58 47.44555 -122.30786 472 ft 191 kts 181°
2026-05-05 03:59 47.43181 -122.30767 1279 ft 217 kts 180°
2026-05-05 03:59 47.41601 -122.30742 1883 ft 223 kts 181°
2026-05-05 03:59 47.40149 -122.30718 2227 ft 200 kts 180°
2026-05-05 03:59 47.38711 -122.30697 2816 ft 211 kts 179°
2026-05-05 04:00 47.37354 -122.30678 3422 ft 185 kts 179°
2026-05-05 04:00 47.36006 -122.30634 4052 ft 204 kts 174°
2026-05-05 04:00 47.34650 -122.29823 4686 ft 222 kts 139°
2026-05-05 04:00 47.33744 -122.27927 5302 ft 236 kts 106°
2026-05-05 04:01 47.33620 -122.25501 5927 ft 248 kts 76°
2026-05-05 04:01 47.34362 -122.23173 6540 ft 259 kts 47°
2026-05-05 04:01 47.35826 -122.21586 7141 ft 269 kts 21°
2026-05-05 04:01 47.37678 -122.21133 7745 ft 272 kts 358°
2026-05-05 04:02 47.39582 -122.21402 8022 ft 273 kts 353°
2026-05-05 04:02 47.41437 -122.21807 8125 ft 273 kts 352°
2026-05-05 04:02 47.43321 -122.22238 8220 ft 274 kts 352°
2026-05-05 04:02 47.45219 -122.22668 8315 ft 275 kts 353°
2026-05-05 04:03 47.47127 -122.22955 8413 ft 275 kts 355°
2026-05-05 04:03 47.49039 -122.23191 8514 ft 276 kts 356°
2026-05-05 04:03 47.50949 -122.23423 8809 ft 276 kts 356°
2026-05-05 04:03 47.52841 -122.23661 9325 ft 274 kts 355°
2026-05-05 04:04 47.54716 -122.23933 9866 ft 267 kts 354°
2026-05-05 04:04 47.56537 -122.24210 10359 ft 258 kts 354°
2026-05-05 04:04 47.58293 -122.24473 10865 ft 248 kts 354°
2026-05-05 04:04 47.59983 -122.24724 11357 ft 240 kts 354°
2026-05-05 04:05 47.61675 -122.24759 11409 ft 250 kts
2026-05-05 04:05 47.63402 -122.24208 11433 ft 261 kts 20°
2026-05-05 04:05 47.65014 -122.22812 11230 ft 281 kts 42°
2026-05-05 04:05 47.66203 -122.20389 11005 ft 301 kts 65°
2026-05-05 04:06 47.66698 -122.17323 10769 ft 321 kts 86°
2026-05-05 04:06 47.66390 -122.13956 10528 ft 341 kts 107°
2026-05-05 04:06 47.65275 -122.10765 10313 ft 358 kts 125°
2026-05-05 04:06 47.63455 -122.08141 10076 ft 373 kts 144°
2026-05-05 04:07 47.61112 -122.06541 9860 ft 367 kts 166°
2026-05-05 04:07 47.58619 -122.06203 9652 ft 354 kts 180°
2026-05-05 04:07 47.56198 -122.06309 9427 ft 341 kts 182°
2026-05-05 04:07 47.53866 -122.06450 9211 ft 329 kts 182°
2026-05-05 04:08 47.51639 -122.06584 8991 ft 319 kts 182°
2026-05-05 04:08 47.49453 -122.06713 8769 ft 311 kts 182°
2026-05-05 04:08 47.47310 -122.06836 8550 ft 303 kts 182°
2026-05-05 04:08 47.45218 -122.06950 8327 ft 296 kts 182°
2026-05-05 04:09 47.43202 -122.07057 8111 ft 290 kts 182°
2026-05-05 04:09 47.41191 -122.07157 7892 ft 288 kts 182°
2026-05-05 04:09 47.39188 -122.07252 7658 ft 288 kts 182°
2026-05-05 04:09 47.37159 -122.07338 7447 ft 288 kts 182°
2026-05-05 04:10 47.35183 -122.07420 7235 ft 288 kts 182°
2026-05-05 04:10 47.33169 -122.07502 7020 ft 289 kts 182°
2026-05-05 04:10 47.31161 -122.07586 6807 ft 286 kts 184°
2026-05-05 04:10 47.29261 -122.08264 6603 ft 279 kts 210°
2026-05-05 04:11 47.27846 -122.10057 6389 ft 266 kts 240°
2026-05-05 04:11 47.27180 -122.12510 6178 ft 255 kts 262°
2026-05-05 04:11 47.26770 -122.15067 5772 ft 259 kts 260°
2026-05-05 04:11 47.26355 -122.17686 5247 ft 266 kts 260°
2026-05-05 04:12 47.25957 -122.20350 4884 ft 264 kts 260°
2026-05-05 04:12 47.25578 -122.22977 4581 ft 259 kts 260°
2026-05-05 04:12 47.25306 -122.25535 4289 ft 253 kts 273°
2026-05-05 04:12 47.25774 -122.27966 3998 ft 246 kts 303°
2026-05-05 04:13 47.26949 -122.29732 3708 ft 241 kts 327°
2026-05-05 04:13 47.27916 -122.30537 3505 ft 239 kts 334°
2026-05-05 04:13 47.29459 -122.31419 3168 ft 238 kts 347°
2026-05-05 04:13 47.31617 -122.31840 2710 ft 231 kts 356°
2026-05-05 04:14 47.32658 -122.31905 2489 ft 220 kts 359°
2026-05-05 04:14 47.34134 -122.31899 2219 ft 204 kts
2026-05-05 04:14 47.35506 -122.31944 2001 ft 186 kts 351°
2026-05-05 04:14 47.36664 -122.32460 1889 ft 166 kts 335°
2026-05-05 04:15 47.37711 -122.33116 1858 ft 161 kts 334°
2026-05-05 04:15 47.38749 -122.33677 1895 ft 160 kts 336°
2026-05-05 04:15 47.39815 -122.34207 1938 ft 160 kts 336°
2026-05-05 04:15 47.40786 -122.34908 2088 ft 153 kts 326°
2026-05-05 04:16 47.41710 -122.35724 2073 ft 159 kts 324°
2026-05-05 04:16 47.42658 -122.36614 2117 ft 162 kts 323°
2026-05-05 04:16 47.43616 -122.37505 2200 ft 162 kts 323°
2026-05-05 04:16 47.44585 -122.38362 2215 ft 167 kts 327°
2026-05-05 04:17 47.45650 -122.39219 2160 ft 176 kts 329°
2026-05-05 04:17 47.46726 -122.40095 2114 ft 183 kts 329°
2026-05-05 04:17 47.47894 -122.40989 2163 ft 193 kts 332°
2026-05-05 04:17 47.49141 -122.41865 2260 ft 201 kts 335°
2026-05-05 04:18 47.50477 -122.42663 2323 ft 211 kts 339°
2026-05-05 04:18 47.51891 -122.43323 2446 ft 213 kts 345°
2026-05-05 04:18 47.53315 -122.43841 2540 ft 213 kts 349°
2026-05-05 04:18 47.54778 -122.44227 2645 ft 213 kts 353°
2026-05-05 04:19 47.56245 -122.44449 2751 ft 211 kts
2026-05-05 04:19 47.57619 -122.43795 2770 ft 207 kts 37°
2026-05-05 04:19 47.58503 -122.42195 2810 ft 194 kts 70°
2026-05-05 04:19 47.58824 -122.40324 2665 ft 183 kts 86°
2026-05-05 04:20 47.58705 -122.38587 2730 ft 169 kts 107°
2026-05-05 04:20 47.58366 -122.36920 2601 ft 169 kts 109°
2026-05-05 04:20 47.58003 -122.35259 2478 ft 170 kts 111°
2026-05-05 04:20 47.57530 -122.33664 2373 ft 168 kts 119°
2026-05-05 04:21 47.56879 -122.32232 2309 ft 167 kts 133°
2026-05-05 04:21 47.56029 -122.31170 2194 ft 154 kts 151°
2026-05-05 04:21 47.55056 -122.30650 2008 ft 149 kts 174°
2026-05-05 04:21 47.54013 -122.30574 1780 ft 148 kts 185°
2026-05-05 04:22 47.52989 -122.30649 1579 ft 147 kts 184°
2026-05-05 04:22 47.51972 -122.30727 1431 ft 147 kts 184°
2026-05-05 04:22 47.50955 -122.30701 1265 ft 145 kts 180°
2026-05-05 04:22 47.49951 -122.30669 1103 ft 145 kts 187°
2026-05-05 04:23 47.48959 -122.30778 877 ft 139 kts 183°
2026-05-05 04:23 47.48000 -122.30732 729 ft 139 kts 183°
2026-05-05 04:23 47.47032 -122.30760 565 ft 140 kts 185°
2026-05-05 04:23 47.46062 -122.30771 406 ft 135 kts 186°
2026-05-05 04:24 47.45282 -122.30790 396 ft 64 kts 179°
2026-05-05 04:24 47.45162 -122.30787 397 ft 0 kts 179°
2026-05-05 04:24 47.45135 -122.30787 393 ft 12 kts 180°
2026-05-05 04:25 47.44896 -122.30688 394 ft 16 kts 105°
2026-05-05 04:25 47.44840 -122.30623 394 ft 10 kts 173°
2026-05-05 04:25 47.44776 -122.30594 395 ft 10 kts 138°
2026-05-05 04:25 47.44757 -122.30497 396 ft 14 kts 92°
2026-05-05 04:26 47.44734 -122.30353 396 ft 15 kts 119°
2026-05-05 04:26 47.44684 -122.30234 396 ft 13 kts 112°
2026-05-05 04:26 47.44644 -122.30141 394 ft 9 kts 130°
2026-05-05 04:26 47.44605 -122.30084 393 ft 7 kts 134°
2026-05-05 04:27 47.44600 -122.30077 397 ft 0 kts 135°